Regional Weather Roundup
Issued by NWS

Home | Current Version | Previous Version | Text Only | Print | Product List | Glossary On
Versions: 1 2 3 4 5 6 7 8 9 10 11 12 13 14 15 16 17 18 19 20 21 22 23 24 25 26 27 28 29
000
ASCA42 TJSJ 242310
RWRPR
PUERTO RICO/U.S. VIRGIN ISLANDS HOURLY WEATHER ROUNDUP
NATIONAL WEATHER SERVICE SAN JUAN PR
700 PM AST TUE MAY 24 2016

PRZ001-004-250000-
PUERTO RICO

CITY           SKY/WX    TMP DP  RH WIND       PRES   REMARKS
SAN JUAN LMM   MOCLDY    82  73  74 E10       30.08R
AGUADILLA      CLEAR     82  75  78 CALM      30.08R
CEIBA          MOCLDY    81  75  83 E6        30.11R
$$

PRZ006-007-250000-
U.S. VIRGIN ISLANDS

CITY           SKY/WX    TMP DP  RH WIND       PRES   REMARKS
CHARLOTTE AMA  PTCLDY    84  73  70 E10       30.08R HX  91
CHRISTIANSTED  LGT RAIN  81  73  78 E10       30.08S
$$

HOURLY WEATHER ROUNDUP FOR THE NEWS MEDIA

CITY           SKY/WX    TMP DP  RH WIND       PRES   REMARKS
ORLANDO        MOSUNNY   82  58  43 E14       30.12S
NEW YORK       CLOUDY    71  48  43 NW6       29.93R
NEWARK         CLOUDY    73  51  46 CALM      29.93R
CHICAGO        MOSUNNY   85  47  26 S14       29.91F
HARTFORD       LGT RAIN  55  54  96 VRB6      29.91R FOG
BOSTON         CLOUDY    53  51  93 N8        29.95R FOG
DALLAS         PTSUNNY   86  71  60 S21       29.89F HX  91
PHILADELPHIA   CLOUDY    81  43  26 W14       29.92R
LOS ANGELES    MOSUNNY   65  53  65 W15       30.01F
WASHINGTON DC  FAIR      80  47  31 NW10      30.00R



USA.gov is the U.S. government's official web portal to all federal, state and local government web resources and services.